Location: Newark
(13.8625°N, 100.5144°E)
Time: 03:45:01
(UTC+00:00)

Hubble Space Telescope - Pass Details

Date: 18 May 2021
Orbit: 535 x 539 km, 28.5° (Epoch: 21 June)

Event Time Altitude Azimuth Distance (km) Brightness Sun altitude
Exits shadow 21:20:30 44° 308° (NW) 745 1.2 -20.8°
Maximum altitude 21:21:06 47° 336° (NNW) 703 1.3 -20.7°
Drops below altitude 10° 21:25:04 10° 51° (NE) 1,773 4.6 -19.8°
Sets 21:27:23 0° 57° (ENE) 2,663 6.0 -19.3°
